EI4HQ Weather Reports


time (UTC)temp
C
wind
direction
speed
KPH
gust
KPH
rain 1hr
cm
rain 24hr
cm
rain mn
cm
humidity
%
barometer
mb
20260503050003 10 336 6.4 9.7 0.00 0.10 0.00 90 1009.7
20260503045403 10 339 4.8 8.0 0.00 0.10 0.00 90 1009.7
20260503044503 9 344 4.8 8.0 0.00 0.13 0.00 90 1009.8
20260503043603 9 335 6.4 11.3 0.00 0.13 0.00 90 1009.9
20260503042703 9 340 6.4 9.7 0.00 0.15 0.00 90 1009.9
20260503041803 9 337 6.4 8.0 0.00 0.15 0.00 90 1009.9
20260503040903 9 337 8.0 9.7 0.00 0.18 0.00 90 1009.9
20260503040003 9 338 6.4 9.7 0.00 0.18 0.00 90 1010.0
20260503035403 9 330 4.8 8.0 0.00 0.18 0.00 90 1010.0
20260503034503 9 332 4.8 9.7 0.00 0.20 0.00 90 1010.1
20260503033603 9 335 8.0 11.3 0.00 0.20 0.00 90 1010.1
20260503032703 9 333 6.4 11.3 0.00 0.20 0.00 90 1010.1
20260503031803 10 333 6.4 9.7 0.00 0.20 0.00 90 1010.1
20260503030903 10 333 8.0 11.3 0.00 0.20 0.00 90 1010.1
20260503030003 10 334 8.0 11.3 0.00 0.20 0.00 90 1010.0
20260503025403 10 335 8.0 9.7 0.00 0.20 0.00 90 1010.1
20260503024503 10 335 8.0 12.9 0.00 0.20 0.00 90 1010.1
20260503023603 10 336 8.0 9.7 0.00 0.20 0.00 90 1010.2
20260503022703 10 333 6.4 9.7 0.00 0.20 0.00 90 1010.1
20260503021803 9 333 3.2 6.4 0.00 0.20 0.00 90 1010.1
20260503020903 9 333 4.8 6.4 0.00 0.20 0.00 90 1010.1
20260503020003 9 333 4.8 8.0 0.00 0.20 0.00 89 1010.2
20260503015403 9 333 4.8 8.0 0.00 0.20 0.00 89 1010.3
20260503014503 10 333 4.8 8.0 0.00 0.20 0.00 90 1010.4
20260503013603 10 333 4.8 8.0 0.00 0.20 0.00 90 1010.4
20260503012703 10 333 4.8 8.0 0.00 0.20 0.00 90 1010.5
20260503011803 10 333 6.4 8.0 0.00 0.20 0.00 90 1010.6
20260503010903 10 333 6.4 8.0 0.00 0.20 0.00 89 1010.6
20260503010003 10 332 6.4 9.7 0.00 0.20 0.00 89 1010.6
20260503005403 10 330 6.4 9.7 0.00 0.20 0.00 89 1010.7
20260503004503 10 334 6.4 9.7 0.00 0.23 0.00 89 1010.7
20260503003603 10 336 6.4 9.7 0.00 0.23 0.00 89 1010.8
20260503002703 10 333 6.4 9.7 0.00 0.23 0.00 89 1010.8
20260503001803 10 325 3.2 6.4 0.00 0.23 0.00 89 1010.9
20260503000903 10 279 1.6 4.8 0.00 0.23 0.00 89 1010.9
20260503000003 10 0 0.0 0.0 0.00 0.23 0.00 89 1010.9
20260502235403 10 0 0.0 0.0 0.00 0.23 0.00 89 1011.0
20260502234503 10 250 0.0 1.6 0.00 0.23 0.00 89 1011.0
20260502233603 9 250 0.0 3.2 0.00 0.23 0.00 89 1011.1
20260502232703 9 250 1.6 4.8 0.00 0.23 0.00 89 1011.1
20260502231803 9 250 0.0 4.8 0.00 0.23 0.00 89 1011.1
20260502230903 9 250 0.0 1.6 0.00 0.23 0.00 89 1011.1
20260502230003 9 250 0.0 3.2 0.00 0.25 0.00 89 1011.1
20260502225403 9 250 0.0 3.2 0.00 0.25 0.25 89 1011.1
20260502224503 9 250 0.0 1.6 0.00 0.25 0.25 89 1011.2
20260502223603 9 250 0.0 1.6 0.00 0.25 0.25 89 1011.2
20260502222703 9 250 0.0 1.6 0.00 0.25 0.25 88 1011.3
20260502221803 9 234 1.6 4.8 0.00 0.25 0.25 88 1011.3
20260502220903 9 222 1.6 6.4 0.00 0.25 0.25 88 1011.3
20260502220003 9 222 0.0 3.2 0.00 0.25 0.25 88 1011.4
20260502215403 9 216 1.6 3.2 0.00 0.25 0.25 88 1011.3
20260502214503 9 188 0.0 3.2 0.00 0.25 0.25 88 1011.4
20260502213603 9 188 0.0 3.2 0.00 0.25 0.25 88 1011.4
20260502212705 9 0 0.0 0.0 0.00 0.25 0.25 88 1011.4
20260502211803 10 0 0.0 0.0 0.00 0.25 0.25 88 1011.4
20260502210903 10 0 0.0 0.0 0.00 0.25 0.25 87 1011.4
20260502210003 10 0 0.0 0.0 0.00 0.25 0.25 87 1011.4
20260502205403 10 0 0.0 0.0 0.00 0.25 0.25 87 1011.4
20260502204503 10 0 0.0 0.0 0.00 0.25 0.25 87 1011.3
20260502203603 10 188 0.0 4.8 0.00 0.25 0.25 87 1011.4
20260502202703 10 188 3.2 4.8 0.00 0.25 0.25 87 1011.3
20260502201803 10 174 3.2 6.4 0.00 0.25 0.25 87 1011.2
20260502200903 10 188 3.2 6.4 0.00 0.25 0.25 87 1011.2
20260502200003 10 187 1.6 4.8 0.00 0.25 0.25 87 1011.1
20260502195403 10 194 1.6 6.4 0.00 0.25 0.25 87 1011.0
20260502194503 10 184 3.2 6.4 0.00 0.25 0.25 87 1011.0
20260502193603 11 174 3.2 6.4 0.00 0.25 0.25 86 1011.1
20260502192703 11 170 3.2 6.4 0.00 0.25 0.25 87 1011.0
20260502191803 11 152 4.8 8.0 0.00 0.25 0.25 86 1011.1
20260502190903 11 171 4.8 8.0 0.00 0.25 0.25 86 1011.0
20260502190004 11 176 6.4 9.7 0.00 0.25 0.25 86 1011.2
20260502185403 11 180 4.8 9.7 0.00 0.25 0.25 86 1011.2
20260502184503 11 177 6.4 9.7 0.00 0.25 0.25 86 1011.2
20260502183603 11 164 6.4 11.3 0.00 0.25 0.25 86 1011.3
20260502182703 11 158 8.0 11.3 0.00 0.25 0.25 85 1011.3
20260502181803 11 157 9.7 12.9 0.00 0.25 0.25 85 1011.3
20260502180903 11 157 8.0 12.9 0.00 0.25 0.25 85 1011.2
20260502163603 12 177 6.4 12.9 0.00 0.25 0.25 85 1011.7
20260502162703 12 179 8.0 14.5 0.00 0.25 0.25 84 1011.7
20260502161803 12 173 9.7 14.5 0.00 0.25 0.25 84 1011.7
20260502160903 12 173 8.0 14.5 0.00 0.25 0.25 84 1011.6
20260502151803 12 161 9.7 16.1 0.00 0.25 0.25 85 1012.0
20260502150903 12 159 12.9 17.7 0.00 0.25 0.25 85 1012.1
20260502123603 12 158 14.5 20.9 0.00 0.25 0.25 88 1013.3
20260502122703 12 158 16.1 27.4 0.00 0.25 0.25 88 1013.4
20260502121803 12 158 16.1 22.5 0.00 0.25 0.25 88 1013.5
20260502120903 12 156 14.5 20.9 0.00 0.25 0.25 87 1013.6
20260502115403 13 148 12.9 19.3 0.00 0.25 0.25 86 1013.5
20260502114503 13 153 11.3 16.1 0.00 0.25 0.25 87 1013.5
20260502113603 13 147 14.5 19.3 0.00 0.25 0.25 87 1013.7
20260502112703 12 149 14.5 20.9 0.00 0.25 0.25 87 1013.8
20260502111803 13 151 12.9 20.9 0.00 0.25 0.25 87 1013.8
20260502110903 13 152 11.3 20.9 0.00 0.25 0.25 89 1013.9
20260502110003 12 151 12.9 20.9 0.00 0.25 0.25 89 1013.9
20260502105403 12 148 12.9 20.9 0.00 0.25 0.25 90 1014.0
20260502104503 12 147 14.5 20.9 0.00 0.25 0.25 89 1014.0
20260502103603 12 146 14.5 20.9 0.00 0.25 0.25 89 1014.0
20260502102703 12 151 12.9 19.3 0.00 0.25 0.25 88 1013.9
20260502101803 12 162 9.7 19.3 0.00 0.25 0.25 88 1014.0
20260502100903 12 175 11.3 16.1 0.00 0.25 0.25 90 1014.0
20260502090903 11 192 6.4 16.1 0.00 0.25 0.25 91 1014.3
20260502070903 11 179 12.9 24.1 0.08 0.28 0.25 92 1014.3
20260502070003 11 175 14.5 27.4 0.08 0.28 0.25 92 1014.2
20260502065403 11 175 14.5 20.9 0.10 0.28 0.25 92 1014.2
20260502064503 11 176 14.5 24.1 0.08 0.25 0.23 92 1014.3
20260502063603 11 175 14.5 24.1 0.05 0.23 0.23 92 1014.3
20260502062703 11 179 12.9 22.5 0.03 0.20 0.18 92 1014.3
20260502061803 11 178 12.9 24.1 0.03 0.20 0.18 92 1014.3
20260502060903 11 170 17.7 27.4 0.03 0.20 0.18 92 1014.3
20260502060003 11 169 17.7 29.0 0.03 0.20 0.18 92 1014.2
20260502055403 11 171 16.1 27.4 0.00 0.18 0.15 92 1014.2
20260502054503 11 166 17.7 27.4 0.03 0.18 0.15 92 1014.2
20260502053603 11 169 16.1 27.4 0.03 0.18 0.15 92 1014.2
20260502052703 11 174 16.1 27.4 0.05 0.18 0.15 92 1014.3
20260502051803 11 174 17.7 27.4 0.05 0.18 0.15 92 1014.3
20260502050903 11 167 16.1 25.7 0.08 0.18 0.15 92 1014.3